This demonstration page uses our WeatherBlox Daily Observations layout. Learn more.

41.55636, -103.73856

Hourly Observations for December 20, 2019

Temp ( °F °C ) Dew Point ( °F °C ) Humidity (%) Winds ( mph kmh ) Pressure ( in mb ) Visibility ( mi km ) Precip ( " mm )
12:58 am 00:58 Partly Cloudy 31 -0.8 18 -8 59 59 NW 12 19 30.13 1020 10 16.0934 0 0
1:58 am 01:58 Clear 31 -0.7 17 -8.6 56 56 WNW 12 19 30.14 1021 10 16.0934 0 0
2:58 am 02:58 Mostly Clear 26 -3.1 16 -8.7 66 66 NW 10 17 30.18 1022 10 16.0934 0 0
3:58 am 03:58 Mostly Clear 27 -2.9 16 -8.9 64 64 W 3 6 30.19 1022 10 16.0934 0 0
4:58 am 04:58 Clear 27 -3 15 -9.6 61 61 W 10 17 30.2 1023 10 16.0934 0 0
5:58 am 05:58 Clear 26 -3.3 17 -8.6 67 67 W 10 17 30.21 1023 10 16.0934 0 0
6:58 am 06:58 Clear 25 -3.8 16 -8.7 69 69 W 8 13 30.21 1023 10 16.0934 0 0
7:58 am 07:58 Clear 27 -2.9 16 -8.9 64 64 WNW 8 13 30.22 1024 10 16.0934 0 0
8:58 am 08:58 Clear 25 -3.8 17 -8.5 70 70 W 10 17 30.24 1024 10 16.0934 0 0
9:58 am 09:58 Clear 26 -3.2 17 -8.5 67 67 WSW 8 13 30.24 1024 10 16.0934 0 0
10:58 am 10:58 Clear 24 -4.2 17 -8.4 73 73 WSW 7 11 30.26 1025 10 16.0934 0 0
11:58 am 11:58 Clear 23 -4.8 17 -8.4 76 76 WSW 8 13 30.27 1025 10 16.0934 0 0
12:58 pm 12:58 Clear 25 -3.8 18 -7.8 74 74 SW 7 11 30.28 1026 10 16.0934 0 0
1:58 pm 13:58 Clear 28 -2.1 18 -7.8 65 65 WSW 8 13 30.29 1026 10 16.0934 0 0
2:58 pm 14:58 Sunny 28 -2.4 19 -7.3 69 69 W 13 20 30.31 1027 10 16.0934 0 0
3:58 pm 15:58 Sunny 33 0.3 21 -6 63 63 W 13 20 30.32 1027 10 16.0934 0 0
4:58 pm 16:58 Sunny 39 3.8 21 -6.3 48 48 W 16 26 30.3 1026 10 16.0934 0 0
5:58 pm 17:58 Sunny 43 6.3 21 -6.2 41 41 WNW 22 35 30.27 1025 10 16.0934 0 0
6:58 pm 18:58 Sunny 46 7.6 22 -5.5 39 39 WNW 17 28 30.23 1024 10 16.0934 0 0
7:58 pm 19:58 Sunny 47 8.6 22 -5.3 37 37 WNW 17 28 30.21 1023 10 16.0934 0 0
8:59 pm 20:59 Sunny 48 9.1 22 -5.8 35 35 WNW 22 35 30.21 1023 10 16.0934 0 0
9:58 pm 21:58 Sunny 46 7.8 24 -4.3 42 42 WNW 10 17 30.23 1024 10 16.0934 0 0
10:58 pm 22:58 Sunny 42 5.4 25 -3.7 52 52 W 12 19 30.27 1025 10 16.0934 0 0
11:58 pm 23:58 Partly Cloudy 41 5.1 24 -4.3 51 51 W 15 24 30.29 1026 10 16.0934 0 0

Powered by AerisWeather